{"data":{"norad_id":37481,"epoch":"2026-05-24T22:51:25.339104Z","epoch_age_seconds":78394,"freshness":"FRESH","line1":"1 37481U 11019A   26144.95237661  .00000097  00000+0  00000+0 0  9995","line2":"2 37481   4.4859  53.1294 0002206   2.5369 221.5400  1.00272070 55164","mean_motion":1.0027207,"eccentricity":0.0002206,"inclination_deg":4.4859,"raan_deg":53.1294,"arg_perigee_deg":2.5369,"mean_anomaly_deg":221.54,"bstar":0,"rev_number":5516,"period_min":1436.0928222585,"perigee_km":35777.213543288,"apogee_km":35795.81658778,"semimajor_km":42164.652065534,"source":"CELESTRAK","updated_at":"2026-05-25T13:38:13.900097Z"}}